Weather History for Tampa Macdill AFB, FL

Change the Weather History Date:

Thursday, December 27, 2012

  Actual Average Record
Temperature  
Mean Temperature 52 °F -  
Max Temperature 62 °F 67 °F 80 °F (2008)
Min Temperature 43 °F 50 °F 33 °F (2010)
Degree Days  
Heating Degree Days 12    
Growing Degree Days 2 (Base 50)    
Moisture  
Dew Point 45 °F    
Average Humidity 74    
Maximum Humidity 98    
Minimum Humidity 56    
Precipitation  
Precipitation 0.00 in - - ()
Sea Level Pressure  
Sea Level Pressure 30.07 in    
Wind  
Wind Speed 6 mph (NE)    
Max Wind Speed 12 mph    
Max Gust Speed -    
Visibility 10 miles    
Events      
Averages and records for this station are not official NWS values.
T = Trace of Precipitation, MM = Missing Value Source: NWS Daily Summary

Daily Weather History Graph

Daily Weather History Graph

Search for Another Location

Airport:

Trip Planner

Search our weather history database for the weather conditions in past years. The results will help you decide how hot, cold, wet, or windy it might be!

Date:

Astronomy

Dec. 27, 2012 Rise Set
Actual Time 7:19 AM EST 5:43 PM EST
Civil Twilight 6:54 AM EST 6:08 PM EST
Nautical Twilight 6:24 AM EST 6:38 PM EST
Astronomical Twilight 5:56 AM EST 7:06 PM EST
Moon 5:22 PM EST (12/27) 6:32 AM EST (12/27)
Length of Visible Light 11h 14m
Length of Day
10h 23m
Full, 100% of the Moon is Illuminated
Dec 27
Full
Dec 28
Full
Jan 4
Last Quarter
Jan 11
New
Jan 18
First Quarter

Hourly Weather History & Observations

Time (EST) Temp. Windchill Dew Point Humidity Pressure Visibility Wind Dir Wind Speed Gust Speed Precip Events Conditions
12:55 AM 55.4 °F - 44.6 °F 67% 30.06 in 10.0 mi NE 8.1 mph - N/A   Clear
1:55 AM 53.6 °F - 42.8 °F 67% 30.04 in 10.0 mi ENE 5.8 mph - N/A   Clear
2:55 AM 53.6 °F - 44.6 °F 72% 30.04 in 10.0 mi Variable 4.6 mph - N/A   Partly Cloudy
4:55 AM 51.8 °F - 42.8 °F 71% 30.04 in 10.0 mi East 5.8 mph - N/A   Partly Cloudy
5:55 AM - - - N/A% - 10.0 mi East 3.5 mph - N/A   Clear
6:55 AM - - - N/A% - 10.0 mi SE 3.5 mph - N/A   Clear
7:55 AM 48.2 °F - 41.0 °F 76% 30.08 in 10.0 mi East 3.5 mph - N/A   Clear
8:55 AM 50.0 °F - 41.0 °F 71% 30.10 in 10.0 mi ENE 5.8 mph - N/A   Clear
9:55 AM 51.8 °F - 41.0 °F 67% 30.11 in 10.0 mi NE 9.2 mph - N/A   Clear
10:55 AM 57.2 °F - 46.4 °F 67% 30.11 in 10.0 mi ENE 5.8 mph - N/A   Clear
11:55 AM 59.0 °F - 46.4 °F 63% 30.10 in 10.0 mi Variable 6.9 mph - N/A   Clear
12:55 PM 60.4 °F - 45.3 °F 57% 30.07 in 10.0 mi North 5.8 mph - N/A   Clear
1:55 PM 62.1 °F - 46.6 °F 57% 30.06 in 10.0 mi WNW 8.1 mph - N/A   Clear
2:55 PM 61.7 °F - 45.9 °F 56% 30.05 in 10.0 mi NNW 9.2 mph - N/A   Clear
3:55 PM 59.0 °F - 47.3 °F 65% 30.04 in 10.0 mi NNW 11.5 mph - N/A   Clear
4:55 PM 58.1 °F - 48.7 °F 71% 30.04 in 10.0 mi NNW 8.1 mph - N/A   Clear
5:55 PM 53.1 °F - 46.8 °F 79% 30.04 in 10.0 mi NNE 5.8 mph - N/A   Clear
6:55 PM 51.3 °F - 46.9 °F 85% 30.05 in 10.0 mi NNE 5.8 mph - N/A   Clear
7:55 PM 48.9 °F - 45.5 °F 88% 30.09 in 10.0 mi NNE 6.9 mph - N/A   Clear
8:55 PM 47.8 °F - 46.0 °F 93% 30.09 in 10.0 mi NNE 4.6 mph - N/A   Clear
9:55 PM 45.7 °F 43.4 °F 44.1 °F 94% 30.10 in 10.0 mi NE 4.6 mph - N/A   Clear
10:55 PM 43.0 °F - 41.4 °F 94% 30.11 in 10.0 mi Calm Calm - N/A   Clear
11:55 PM 44.2 °F 41.0 °F 43.7 °F 98% 30.11 in 10.0 mi NNE 5.8 mph - N/A   Clear